星链-34985 (STARLINK-34985)

导读

STARLINK-34985是美国SpaceX公司星链(Starlink)项目中的一颗低轨互联网卫星,于2025年8月30日发射入轨。作为星链巨型星座的一员,它运行在近地轨道,旨在为全球偏远、网络基础设施匮乏的地区提供低延迟、高速的宽带互联网服务,助力缩小数字鸿沟。星链项目规划总计部署超4万颗卫星,该卫星是星座组网扩容的重要组成部分,进一步推动了全球卫星互联网覆盖能力的提升。

基本信息
目录编号:
65379
目录名称:
STARLINK-34985
国际标识:
2025-191A
轨道中心:
EARTH
卫星名称:
星链-34985
卫星全名:
星链-34985 (STARLINK-34985)
卫星状态:
在轨 (已飞行287 天)
发射日期:
2025-08-30 UTC
国别 :
美国 (US)
星等 :
--
轨道信息
数据来源 国际轨道数据
星历时间: 2026-06-13T13:45:53+0800
10小时前
查看轨道信息
半长轴: 6928.243km
偏心率: 0.0003154
轨道倾角: 97.371°
近地点辐角 71.239°
升交点赤经 34.790°
平近点角 288.918°
近地点: 547.92km
远地点: 552.292km
周期: 95.652分钟
每日圈数: 15.054564
详细信息
固有亮度:
5
最大亮度:
2.5
卫星平台:
Starlink V1.0
覆盖范围:
全球
运营商:
太空探索技术公司
运营商所在国:
美国
制造商(研发单位):
太空探索技术公司
制造商所在国:
美国
使用方式:
暂无
卫星简介
Starlink 计划是 SpaceX 推出的全球卫星互联网项目,通过发射低轨道卫星,为全球尤其是偏远地区提供高速、低延迟的互联网服务。自 2019 年起,Starlink 已部署数千颗卫星,旨在缩小全球数字鸿沟,推动互联网普及。该项目还为军事、航空等行业提供通信支持,带来广泛经济效益。
2D轨道图
3D轨道图
轨道高度分析图
轨道倾角分析图
轨道综合分析图
查看轨道综合分析图